This demonstration page uses our WeatherBlox Daily Observations layout. Learn more.

Left ArrowRight Arrow

40.92945, -100.16068

Hourly Observations for January 3, 2021

Temp ( °F °C ) Dew Point ( °F °C ) Humidity (%) Winds ( mph kmh ) Pressure ( in mb ) Visibility ( mi km ) Precip ( " mm )
12:15 am 00:15 Clear 19 -7.4 16 -8.7 91 91 WNW 7 11 30.01 1016 10 16.0934 0 0
12:35 am 00:35 Clear 19 -7.4 17 -8.4 93 93 WNW 6 9 30 1016 10 16.0934 0 0
12:55 am 00:55 Clear 18 -8 16 -9 93 93 NW 6 9 30.01 1016 10 16.0934 0 0
1:15 am 01:15 Clear 18 -7.8 16 -8.8 93 93 WNW 6 9 30.01 1016 10 16.0934 0 0
1:35 am 01:35 Clear 17 -8.2 15 -9.2 93 93 WNW 8 13 30.01 1016 10 16.0934 0 0
1:55 am 01:55 Clear 19 -7 18 -7.8 94 94 WNW 10 17 30 1016 10 16.0934 0 0
2:15 am 02:15 Clear 21 -6 18 -7.6 89 89 WNW 9 15 29.99 1015 10 16.0934 0 0
2:35 am 02:35 Clear 21 -6 18 -7.6 89 89 WNW 10 17 29.99 1015 10 16.0934 0 0
2:55 am 02:55 Clear 24 -4.4 21 -6.3 87 87 WNW 15 24 29.98 1015 10 16.0934 0 0
3:15 am 03:15 Clear 23 -4.9 19 -7.1 85 85 WNW 13 20 29.99 1015 10 16.0934 0 0
3:35 am 03:35 Clear 24 -4.3 20 -6.6 84 84 WNW 13 20 29.98 1015 10 16.0934 0 0
3:55 am 03:55 Clear 23 -5.1 19 -7.2 85 85 WNW 10 17 29.99 1016 10 16.0934 0 0
4:15 am 04:15 Clear 22 -5.5 19 -7.5 86 86 W 10 17 29.99 1016 10 16.0934 0 0
4:35 am 04:35 Clear 22 -5.3 19 -7.2 87 87 WNW 10 17 29.99 1016 10 16.0934 0 0
4:55 am 04:55 Partly Cloudy 23 -5.2 19 -7.1 87 87 WNW 10 17 29.99 1016 10 16.0934 0 0
5:15 am 05:15 Clear 22 -5.5 19 -7.3 87 87 WNW 10 17 29.99 1016 10 16.0934 0 0
5:35 am 05:35 Clear 23 -5.1 20 -6.9 87 87 W 8 13 29.99 1016 10 16.0934 0 0
5:55 am 05:55 Partly Cloudy 21 -6 18 -7.7 88 88 W 7 11 30 1016 10 16.0934 0 0
6:15 am 06:15 Partly Cloudy 20 -6.7 17 -8.2 89 89 W 7 11 30 1016 10 16.0934 0 0
6:35 am 06:35 Mostly Cloudy 20 -6.7 18 -8 91 91 W 8 13 30 1016 10 16.0934 0 0
6:55 am 06:55 Cloudy 25 -3.7 22 -5.3 89 89 WNW 8 13 29.97 1015 10 16.0934 0 0
7:15 am 07:15 Cloudy 25 -4 22 -5.6 89 89 WNW 7 11 29.98 1015 10 16.0934 0 0
7:35 am 07:35 Cloudy 25 -4.1 22 -5.6 89 89 WNW 3 6 29.98 1015 10 16.0934 0 0
7:55 am 07:55 Partly Cloudy 24 -4.2 22 -5.7 89 89 NW 5 7 29.99 1016 10 16.0934 0 0
8:15 am 08:15 Partly Cloudy 23 -4.9 20 -6.5 89 89 WNW 6 9 30 1016 10 16.0934 0 0
8:35 am 08:35 Sunny 22 -5.8 19 -7.1 91 91 WNW 5 7 30.01 1016 10 16.0934 0 0
8:55 am 08:55 Sunny 23 -5.1 20 -6.6 89 89 WNW 8 13 30 1016 10 16.0934 0 0
9:15 am 09:15 Partly Cloudy 25 -3.9 22 -5.3 90 90 WNW 7 11 30 1016 10 16.0934 0 0
9:35 am 09:35 Sunny 28 -2.1 25 -4 87 87 WNW 7 11 29.98 1015 10 16.0934 0 0
9:55 am 09:55 Sunny 29 -1.5 25 -3.7 85 85 WNW 8 13 29.97 1015 10 16.0934 0 0
10:15 am 10:15 Sunny 31 -0.8 26 -3.3 83 83 WNW 9 15 29.96 1015 10 16.0934 0 0
10:35 am 10:35 Sunny 32 0 27 -3 80 80 WNW 10 17 29.96 1014 10 16.0934 0 0
10:55 am 10:55 Sunny 33 0.5 28 -2.5 81 81 WNW 10 17 29.95 1014 10 16.0934 0 0
11:15 am 11:15 Sunny 35 1.4 28 -2.3 77 77 WNW 8 13 29.93 1014 10 16.0934 0 0
11:35 am 11:35 Sunny 35 1.9 28 -2 76 76 WNW 7 11 29.93 1013 10 16.0934 0 0
11:55 am 11:55 Sunny 36 2.2 29 -1.8 75 75 WNW 7 11 29.91 1013 10 16.0934 0 0
12:15 pm 12:15 Sunny 37 2.9 29 -1.6 73 73 WNW 6 9 29.9 1012 10 16.0934 0 0
12:35 pm 12:35 Sunny 38 3.5 29 -1.5 70 70 NW 3 6 29.88 1012 10 16.0934 0 0
12:55 pm 12:55 Sunny 39 4 29 -1.4 68 68 WNW 5 7 29.87 1011 10 16.0934 0 0
1:15 pm 13:15 Sunny 39 3.7 30 -1.2 71 71 NW 3 6 29.87 1012 10 16.0934 0 0
1:35 pm 13:35 Sunny 39 4 30 -1.3 69 69 Calm 29.85 1011 10 16.0934 0 0
1:55 pm 13:55 Sunny 40 4.2 29 -1.4 67 67 Calm 29.85 1011 10 16.0934 0 0
2:15 pm 14:15 Sunny 40 4.5 30 -1.1 67 67 Calm 29.83 1010 10 16.0934 0 0
2:35 pm 14:35 Sunny 41 5 31 -0.8 66 66 Calm 29.83 1010 10 16.0934 0 0
2:55 pm 14:55 Sunny 42 5.5 31 -0.5 66 66 Calm 29.82 1010 10 16.0934 0 0
3:15 pm 15:15 Sunny 45 7 31 -0.6 59 59 Calm 29.81 1009 10 16.0934 0 0
3:35 pm 15:35 Sunny 44 6.9 31 -0.7 59 59 WSW 3 6 29.81 1009 10 16.0934 0 0
3:55 pm 15:55 Sunny 44 6.7 31 -0.6 60 60 SW 5 7 29.81 1010 10 16.0934 0 0
4:15 pm 16:15 Sunny 43 6 30 -1.1 61 61 SW 6 9 29.83 1010 10 16.0934 0 0
4:35 pm 16:35 Sunny 42 5.7 29 -1.5 60 60 SW 8 13 29.83 1010 10 16.0934 0 0
4:55 pm 16:55 Sunny 42 5.3 29 -1.4 62 62 SSW 6 9 29.82 1010 10 16.0934 0 0
5:15 pm 17:15 Sunny 39 4 29 -1.6 67 67 SSW 5 7 29.85 1011 10 16.0934 0 0
5:35 pm 17:35 Clear 38 3.1 28 -2 70 70 SSW 6 9 29.87 1011 10 16.0934 0 0
5:55 pm 17:55 Clear 37 3 29 -1.9 71 71 SW 8 13 29.87 1011 10 16.0934 0 0
6:15 pm 18:15 Clear 37 2.6 28 -2 72 72 SW 7 11 29.88 1012 10 16.0934 0 0
6:35 pm 18:35 Clear 36 2.2 28 -2.2 73 73 SW 8 13 29.88 1012 10 16.0934 0 0
6:55 pm 18:55 Clear 34 1.2 28 -2.5 77 77 SW 7 11 29.89 1012 10 16.0934 0 0
7:15 pm 19:15 Clear 34 1.2 27 -2.9 74 74 SW 6 9 29.89 1012 10 16.0934 0 0
7:35 pm 19:35 Clear 34 1 26 -3.2 74 74 SW 7 11 29.9 1012 10 16.0934 0 0
7:55 pm 19:55 Clear 33 0.8 26 -3.5 73 73 SW 7 11 29.9 1012 10 16.0934 0 0
8:15 pm 20:15 Clear 33 0.7 26 -3.5 74 74 SW 7 11 29.91 1013 10 16.0934 0 0
8:35 pm 20:35 Clear 33 0.7 26 -3.5 74 74 SW 6 9 29.91 1013 10 16.0934 0 0
8:55 pm 20:55 Clear 34 1.2 25 -3.7 70 70 WSW 7 11 29.89 1012 10 16.0934 0 0
9:15 pm 21:15 Clear 34 0.9 25 -3.7 72 72 WSW 6 9 29.9 1012 10 16.0934 0 0
9:35 pm 21:35 Clear 33 0.6 25 -4 72 72 Calm 29.9 1013 10 16.0934 0 0
9:55 pm 21:55 Clear 33 0.7 26 -3.6 73 73 Calm 29.89 1012 10 16.0934 0 0
10:15 pm 22:15 Clear 34 0.9 25 -3.7 72 72 W 5 7 29.89 1012 10 16.0934 0 0
10:35 pm 22:35 Clear 32 0.1 26 -3.4 78 78 W 7 11 29.91 1013 10 16.0934 0 0
10:55 pm 22:55 Clear 32 0.1 26 -3.5 77 77 W 7 11 29.91 1013 10 16.0934 0 0
11:15 pm 23:15 Partly Cloudy 37 2.6 29 -1.8 73 73 W 9 15 29.88 1012 10 16.0934 0 0
11:35 pm 23:35 Cloudy 39 3.9 30 -1.1 70 70 W 13 20 29.87 1011 10 16.0934 0 0
11:55 pm 23:55 Cloudy 42 5.3 31 -0.6 66 66 WNW 15 24 29.86 1011 10 16.0934 0 0

Powered by AerisWeather